Theta_e
313 313 313 313 313 313 313 312 312 313 312 313 313 312 312 311 311 311 311 312 312 312 312 312 312 311 310 309 309 308 309 309 308 309 308 307 306 306 307 307 306 304 301
313 313 313 313 313 313 313 313 313 313 313 313 313 312 312 311 311 310 310 310 310 311 311 311 311 310 309 309 308 307 308 308 308 308 306 305 305 304 303 303 301 299 297
312 312 311 310 310 309 309 309 310 310 311 312 312 312 312 311 311 310 310 309 309 309 309 310 310 309 308 307 306 306 307 307 308 307 305 304 302 301 301 300 298 295 293
311 310 310 309 309 309 308 308 308 310 311 311 312 312 312 311 311 310 310 309 309 308 308 308 308 307 307 307 306 306 307 306 305 304 303 302 301 300 297 296 294 293 292
306 305 305 305 305 306 306 306 307 308 309 310 310 311 311 311 311 310 309 308 308 307 307 306 307 306 305 305 305 306 305 304 303 302 301 300 298 297 296 295 293 292 291
302 301 301 302 302 303 303 303 303 304 305 306 307 308 309 309 309 309 308 307 307 307 305 306 306 305 305 304 304 304 304 303 302 300 299 298 298 296 294 293 292 291 289
301 301 301 301 301 301 301 302 302 302 303 305 306 306 307 308 307 306 305 305 305 304 304 304 302 302 301 302 302 303 303 302 300 299 297 296 296 296 294 292 292 291 291
300 301 301 301 301 300 300 300 300 300 301 303 305 305 305 305 305 305 304 302 302 302 301 301 300 300 300 301 302 302 301 299 296 295 294 293 292 292 292 292 292 291 290
299 299 299 299 300 300 300 300 300 301 302 303 304 304 303 302 301 302 301 299 299 299 299 298 298 299 300 300 300 298 296 294 293 291 292 291 291 292 291 291 291 290 289
298 298 298 299 299 299 299 300 300 301 303 303 304 303 303 302 300 299 295 296 297 296 297 298 298 299 298 296 295 293 292 291 291 290 290 290 290 291 291 291 290 290 289
295 296 297 298 298 298 298 298 298 299 301 302 302 300 299 298 299 298 295 295 295 295 296 296 295 293 292 291 290 290 290 289 289 290 290 290 290 290 289 289 288 287 287
294 294 294 293 294 296 297 297 298 299 299 299 299 298 296 295 294 293 294 294 294 293 291 291 290 289 289 288 288 288 288 288 288 289 289 289 288 288 287 287 287 287 286
293 293 293 294 293 294 296 297 298 297 297 297 296 296 296 294 293 291 290 289 289 289 289 288 288 288 287 288 288 288 288 288 288 288 288 288 287 287 287 286 286 286 285
293 293 292 293 293 293 295 296 296 296 295 294 293 293 292 291 290 288 288 288 288 287 287 287 287 287 287 287 287 288 288 288 288 287 288 288 287 286 286 285 285 284 284
290 290 291 291 292 292 294 294 294 294 292 291 291 290 290 289 288 288 288 288 288 287 287 287 287 287 287 287 287 287 287 287 288 288 287 286 286 285 285 284 283 283 282
289 289 290 290 291 291 293 294 291 291 289 289 289 289 289 288 287 288 288 288 288 288 288 287 287 287 287 287 287 287 287 287 287 287 286 285 285 284 284 283 282 281 281
287 288 289 290 291 291 290 290 289 289 289 289 289 289 288 288 288 288 288 287 287 288 289 288 288 287 287 287 287 286 286 286 286 285 284 284 283 283 282 281 280 279 278
287 287 288 289 290 290 289 288 286 287 288 288 288 288 288 288 287 287 287 288 288 287 287 287 286 286 286 285 285 284 284 284 284 283 283 282 282 281 280 279 278 278 277
287 287 287 288 289 289 289 287 286 287 287 288 288 287 287 287 288 288 288 287 287 286 286 285 284 284 284 283 283 283 282 281 281 280 280 279 279 278 278 277 276 276 275
285 286 286 287 287 288 287 286 286 286 287 287 287 287 288 288 289 288 287 287 286 285 284 283 283 282 282 281 280 280 279 279 278 277 277 276 276 276 276 275 274 273 272
284 285 285 286 286 286 286 286 286 286 286 286 287 286 288 289 288 287 286 285 284 283 282 281 280 279 279 279 278 278 277 277 276 276 275 275 274 274 273 273 272 272 272
282 283 283 284 285 284 284 285 285 286 286 286 285 286 287 286 285 284 283 283 282 281 280 279 279 278 278 277 277 276 276 275 275 274 274 274 274 273 273 272 272 271 270
280 280 281 282 283 282 282 284 285 285 285 285 285 285 286 285 283 282 281 280 279 279 279 278 277 276 276 275 274 274 273 273 273 272 272 272 272 272 271 271 270 270 269
278 279 280 280 281 281 282 283 285 284 284 284 285 286 284 283 282 280 280 279 279 278 277 276 275 274 274 273 273 272 272 271 271 271 271 271 271 271 270 270 270 269 269
277 278 278 279 280 280 282 283 284 284 283 283 284 283 282 280 279 279 279 277 276 276 275 274 273 273 273 272 272 272 271 271 270 270 270 270 270 270 269 269 269 269 268
276 276 277 277 278 280 281 282 283 282 282 282 281 280 279 279 278 278 276 275 274 274 273 273 273 273 272 272 272 272 271 271 270 270 270 269 269 269 269 268 268 268 267
Wind_Speed
10 10 10 11 12 15 17 18 21 23 25 28 29 32 32 32 31 32 35 37 40 42 43 44 45 43 42 40 41 43 46 45 52 54 50 49 46 44 42 41 38 35 35
12 11 11 12 14 16 19 21 23 26 28 32 34 36 36 35 34 34 35 36 38 40 41 42 43 39 39 38 40 43 45 44 46 50 46 46 46 42 40 37 34 34 33
14 14 14 15 17 18 20 22 25 28 29 31 33 35 36 37 36 36 36 38 38 38 38 39 36 36 38 37 36 38 41 42 42 45 45 45 43 39 38 35 34 30 27
14 16 17 18 20 21 23 24 25 26 28 29 29 31 32 34 36 37 38 39 40 40 38 35 35 35 36 35 36 36 37 40 39 39 41 40 40 38 34 30 29 24 24
18 19 21 21 22 24 25 26 27 27 28 29 30 30 32 33 33 34 34 37 38 38 37 35 33 34 34 35 35 37 36 36 37 36 38 38 37 34 33 28 23 21 21
22 23 25 26 27 28 29 31 32 34 33 32 31 33 33 33 33 35 35 35 35 36 37 35 34 34 34 35 36 36 37 35 35 34 33 34 32 28 24 22 23 24 19
28 30 31 33 35 36 37 39 41 40 40 38 36 34 35 36 35 35 33 34 35 35 34 32 34 33 33 33 33 35 36 33 31 29 27 24 21 18 18 19 20 21 22
33 35 36 38 39 40 41 42 43 44 45 43 42 38 36 33 34 36 33 33 32 31 31 31 33 32 29 30 31 30 29 26 22 20 15 13 11 10 13 14 15 15 14
33 34 35 36 38 40 41 42 43 45 46 46 44 42 39 35 32 32 30 28 29 29 30 30 29 29 27 27 26 23 19 16 12 9 7 6 8 10 8 9 10 8 10
31 32 34 35 38 40 41 42 43 43 44 43 42 41 40 40 36 31 27 27 28 28 29 29 28 27 24 19 17 12 11 9 7 10 10 16 12 12 10 7 5 6 10
30 31 32 34 36 39 41 42 44 44 44 42 39 36 34 34 33 32 28 24 25 27 27 25 21 16 10 7 5 7 7 10 12 13 14 14 13 10 7 6 6 4 7
33 33 34 35 38 40 42 43 42 41 41 39 38 35 33 30 28 24 22 21 21 21 19 14 9 7 9 8 8 10 11 13 16 14 13 10 6 3 3 3 4 6 9
34 34 35 37 39 39 42 42 42 38 38 38 37 35 32 27 23 18 12 12 12 9 5 4 9 13 13 14 17 17 16 16 15 9 7 3 2 3 3 4 6 8 8
38 38 37 39 40 40 39 40 39 38 37 36 33 30 25 18 12 9 7 5 0 6 11 11 14 17 16 17 15 16 17 15 10 3 2 4 3 3 5 7 7 7 8
42 43 42 42 42 41 37 35 35 33 31 29 25 21 17 10 7 5 2 2 6 10 16 14 17 16 15 15 13 12 9 5 2 4 5 5 6 7 7 8 9 10 10
44 44 43 43 43 42 38 35 27 27 21 18 14 11 7 5 10 5 6 9 10 11 13 14 14 13 13 12 10 8 5 5 5 5 6 7 8 8 10 10 10 10 11
42 43 43 42 41 40 35 28 26 20 15 9 3 2 6 11 11 10 12 12 11 10 11 12 11 10 8 8 7 6 5 5 5 6 7 8 9 9 10 11 11 11 10
41 41 41 41 38 36 30 24 19 18 15 9 8 10 12 12 12 11 10 8 8 8 7 8 8 7 5 4 3 2 2 3 6 7 9 10 11 11 11 12 12 12 12
40 40 39 37 36 31 26 21 21 21 18 15 12 12 17 17 14 10 8 7 7 6 6 6 6 4 3 1 1 3 5 6 8 9 10 10 10 11 11 11 11 11 12
37 37 36 35 32 28 24 22 25 27 23 20 18 16 15 13 11 11 11 10 10 8 6 5 3 2 3 3 4 5 7 8 9 9 9 10 10 11 11 10 11 11 11
36 35 33 31 29 27 25 25 27 28 25 22 20 18 13 12 14 13 12 11 10 8 6 5 4 4 5 6 7 8 8 9 9 9 9 9 10 10 10 11 11 12 12
34 32 30 28 25 24 24 24 28 27 26 23 21 17 15 16 14 13 11 10 8 6 6 6 6 7 7 8 9 9 9 9 9 9 9 9 10 11 11 11 11 11 11
28 27 26 24 22 21 23 24 28 28 26 24 19 16 15 15 15 13 10 8 7 7 8 8 9 9 9 9 9 9 9 8 8 8 8 9 9 9 9 10 10 11 12
23 22 21 20 17 19 21 25 27 26 26 24 22 19 17 15 13 11 9 8 9 9 9 10 10 9 9 8 8 9 8 8 7 7 8 9 9 9 10 11 12 12 12
18 17 16 15 16 19 21 26 26 26 25 23 19 17 16 14 12 10 10 11 10 11 12 11 10 8 8 8 8 8 8 8 8 8 9 11 11 11 11 12 13 13 13
13 12 12 12 15 16 20 24 25 24 22 19 17 15 13 11 11 11 11 12 12 12 11 9 8 8 7 7 7 8 9 9 10 10 11 12 13 13 13 13 13 13 14
Wind_Direction
352 346 336 323 311 303 300 295 294 294 293 295 298 299 299 295 286 277 272 271 269 270 271 273 273 275 276 278 277 277 275 272 275 281 281 281 278 277 276 275 268 261 256
349 343 334 326 318 312 307 303 299 297 296 296 297 298 298 298 295 288 283 279 276 274 273 272 273 274 277 275 276 276 275 274 275 281 284 280 282 280 277 271 263 260 253
338 334 331 327 322 318 312 310 308 306 305 304 303 301 298 297 296 293 288 284 281 279 276 274 273 273 275 277 277 279 278 278 276 279 280 279 280 277 273 267 259 255 253
336 331 328 327 325 324 322 320 318 314 310 306 304 302 299 296 294 292 290 287 283 281 279 274 274 274 275 276 276 275 278 278 278 278 275 276 274 273 266 256 250 251 250
344 340 338 338 334 332 330 328 325 322 319 315 311 306 301 297 295 291 286 284 282 280 278 277 274 274 275 274 272 273 275 275 274 272 271 271 268 265 262 259 249 245 231
342 338 336 334 333 329 327 326 324 323 321 320 317 311 307 302 298 292 288 283 279 278 277 276 272 270 270 271 271 271 272 272 270 270 270 268 270 268 260 247 233 220 213
332 329 326 324 322 320 319 318 317 317 316 317 317 315 312 310 305 300 292 284 280 277 275 273 275 275 276 275 272 269 270 270 266 266 267 271 272 267 253 230 229 216 212
324 323 322 319 316 315 313 312 312 312 312 312 312 312 310 308 303 301 296 289 284 278 275 277 278 280 277 273 270 267 265 265 265 268 264 262 269 259 232 218 201 196 212
320 321 320 320 319 318 317 314 313 311 311 311 311 311 310 310 305 299 294 288 284 282 280 278 278 278 274 271 268 265 260 260 254 240 217 176 149 148 170 175 190 219 231
317 315 314 314 313 312 312 313 312 311 308 308 307 308 309 309 310 307 297 293 286 283 280 276 274 272 271 267 258 249 238 222 187 160 150 135 134 130 124 132 147 210 228
312 311 311 311 309 309 309 309 309 309 308 306 304 306 307 308 309 307 303 293 287 283 280 273 270 266 252 208 197 179 176 167 155 143 136 118 118 120 126 155 181 206 250
309 309 310 309 308 308 307 308 308 309 307 306 304 304 307 309 307 302 292 284 280 280 279 271 252 167 143 141 141 130 136 151 142 131 128 122 119 128 153 195 257 278 283
309 310 310 309 309 308 307 306 306 306 306 306 305 305 305 303 300 290 283 288 292 286 255 202 155 139 121 116 113 110 119 145 143 120 113 76 357 311 262 261 281 286 283
308 307 307 306 307 306 305 305 305 304 305 304 303 301 297 295 285 268 283 296 74 135 128 125 132 126 119 116 119 120 120 126 135 141 360 332 303 268 290 292 294 291 285
303 303 302 302 304 305 303 304 304 303 302 302 301 293 287 284 220 227 258 118 115 128 134 132 134 131 120 120 126 129 134 154 210 299 311 293 286 291 291 294 296 295 292
299 301 301 300 300 302 304 303 303 300 299 295 294 283 256 183 179 187 130 118 122 131 151 147 143 144 144 148 159 171 218 259 268 272 271 278 289 295 298 294 290 289 287
298 298 298 296 297 300 303 299 298 289 282 275 273 220 175 164 169 153 134 121 119 128 138 136 143 149 156 167 183 207 233 256 271 282 292 300 302 301 295 291 290 290 284
296 294 291 293 294 295 293 288 275 267 261 235 188 163 157 161 159 158 151 146 138 145 148 149 153 168 178 183 195 219 271 298 299 301 302 302 300 296 292 290 292 288 281
293 291 289 289 289 290 281 270 247 236 237 224 200 183 166 170 168 164 173 178 181 179 166 164 167 172 173 193 292 310 311 308 308 306 305 301 297 293 295 294 290 288 288
293 289 286 286 287 282 266 255 241 235 234 222 208 195 177 171 186 196 198 195 196 192 190 187 195 227 263 280 300 310 313 313 308 304 305 305 303 302 301 302 302 301 301
292 289 287 282 280 272 260 253 241 234 229 220 214 198 186 200 199 195 196 191 189 190 206 229 248 269 290 302 307 308 308 307 304 303 299 300 302 306 308 309 307 305 300
289 286 284 281 276 263 258 256 240 230 221 215 204 190 191 185 184 188 190 197 206 219 239 257 279 286 292 300 301 300 297 293 290 291 298 300 301 303 304 303 303 302 299
289 286 282 278 269 255 255 253 231 222 214 206 197 189 188 197 193 196 203 216 230 252 264 276 280 285 291 291 290 292 291 291 294 298 300 301 300 302 306 310 309 304 300
287 284 280 273 261 252 247 240 221 211 204 199 194 196 199 198 200 208 224 243 256 263 274 280 281 285 286 288 292 292 294 298 299 302 302 301 306 313 314 308 300 297 296
290 286 280 272 259 245 233 218 208 201 200 198 195 195 199 204 214 228 246 253 262 273 275 279 282 281 282 285 288 294 299 302 303 301 302 302 304 304 300 294 291 291 290
300 293 283 266 247 232 217 206 201 198 196 194 193 199 207 223 235 248 257 266 272 275 275 272 271 275 280 284 291 299 304 305 301 300 299 296 294 293 292 289 287 284 282